Change the Weather History Date:

Sunday, September 22, 2013

  Actual Average Record
Temperature  
Mean Temperature 45 °F -  
Max Temperature 64 °F 60 °F 73 °F (2008)
Min Temperature 26 °F 41 °F 26 °F (2013)
Degree Days  
Heating Degree Days 20    
Moisture  
Dew Point 38 °F    
Average Humidity 81    
Maximum Humidity 100    
Minimum Humidity 45    
Precipitation  
Precipitation 0.00 in - - ()
Sea Level Pressure  
Sea Level Pressure 29.97 in    
Wind  
Wind Speed 2 mph (SE)    
Max Wind Speed 8 mph    
Max Gust Speed 16 mph    
Visibility 10 miles    
Events      
Averages and records for this station are not official NWS values.
T = Trace of Precipitation, MM = Missing Value Source: NWS Daily Summary

Daily Weather History Graph

Daily Weather History Graph

Search for Another Location

Airport or City:

Trip Planner

Search our weather history database for the weather conditions in past years. The results will help you decide how hot, cold, wet, or windy it might be!

Date:

Astronomy

Sep. 22, 2013 Rise Set
Actual Time 6:56 AM CDT 7:07 PM CDT
Civil Twilight 6:25 AM CDT 7:38 PM CDT
Nautical Twilight 5:49 AM CDT 8:14 PM CDT
Astronomical Twilight 5:11 AM CDT 8:52 PM CDT
Moon 8:37 PM CDT (9/22) 10:36 AM CDT (9/22)
Length of Visible Light 13h 12m
Length of Day
12h 10m
Waning Gibbous, 88% of the Moon is Illuminated
Sep 22
Waning Gibbous
Sep 26
Last Quarter
Oct 4
New
Oct 11
First Quarter
Oct 18
Full

Hourly Weather History & Observations

Time (CDT) Temp. Windchill Dew Point Humidity Pressure Visibility Wind Dir Wind Speed Gust Speed Precip Events Conditions
12:14 AM 28.4 °F - 26.6 °F 93% 30.01 in 10.0 mi Calm Calm - N/A   Clear
12:34 AM 28.4 °F - 26.6 °F 93% 30.01 in 10.0 mi Calm Calm - N/A   Clear
12:54 AM 28.4 °F - 26.6 °F 93% 30.01 in 10.0 mi Calm Calm - N/A   Clear
1:14 AM 28.4 °F - 26.6 °F 93% 30.01 in 10.0 mi Calm Calm - N/A   Clear
1:34 AM 28.4 °F - 26.6 °F 93% 30.02 in 10.0 mi Calm Calm - N/A   Clear
1:54 AM 28.4 °F - 26.6 °F 93% 30.02 in 10.0 mi Calm Calm - N/A   Clear
2:14 AM 28.4 °F - 26.6 °F 93% 30.02 in 10.0 mi Calm Calm - N/A   Clear
2:34 AM 28.4 °F - 26.6 °F 93% 30.01 in 10.0 mi Calm Calm - N/A   Clear
2:54 AM 26.6 °F - 26.6 °F 100% 30.01 in 10.0 mi Calm Calm - N/A   Clear
3:14 AM 26.6 °F - 26.6 °F 100% 30.01 in 10.0 mi Calm Calm - N/A   Clear
3:34 AM 26.6 °F - 26.6 °F 100% 30.01 in 10.0 mi Calm Calm - N/A   Clear
3:54 AM 26.6 °F - 26.6 °F 100% 30.02 in 10.0 mi Calm Calm - N/A   Clear
4:14 AM 26.6 °F - 26.6 °F 100% 30.02 in 10.0 mi Calm Calm - N/A   Clear
4:34 AM 26.6 °F - 26.6 °F 100% 30.02 in 10.0 mi Calm Calm - N/A   Clear
4:54 AM 26.6 °F - 26.6 °F 100% 30.02 in 10.0 mi Calm Calm - N/A   Clear
5:14 AM 26.6 °F - 26.6 °F 100% 30.03 in 10.0 mi Calm Calm - N/A   Clear
5:34 AM 26.6 °F - 26.6 °F 100% 30.02 in 10.0 mi Calm Calm - N/A   Clear
5:54 AM 26.6 °F - 26.6 °F 100% 30.02 in 10.0 mi Calm Calm - N/A   Clear
6:14 AM 26.6 °F - 26.6 °F 100% 30.03 in 10.0 mi Calm Calm - N/A   Clear
6:34 AM 26.6 °F - 26.6 °F 100% 30.03 in 10.0 mi Calm Calm - N/A   Clear
6:54 AM 26.6 °F - 24.8 °F 93% 30.03 in 10.0 mi Calm Calm - N/A   Clear
7:14 AM 26.6 °F - 26.6 °F 100% 30.03 in 10.0 mi Calm Calm - N/A   Clear
7:34 AM 26.6 °F - 26.6 °F 100% 30.03 in 10.0 mi Calm Calm - N/A   Clear
7:54 AM 28.4 °F - 26.6 °F 93% 30.03 in 10.0 mi Calm Calm - N/A   Clear
8:14 AM 30.2 °F - 28.4 °F 93% 30.03 in 10.0 mi Calm Calm - N/A   Clear
8:34 AM 33.8 °F - 32.0 °F 93% 30.03 in 10.0 mi Calm Calm - N/A   Clear
8:54 AM 37.4 °F 34.9 °F 35.6 °F 93% 30.03 in 10.0 mi SSE 3.5 mph - N/A   Clear
9:14 AM 42.8 °F 40.1 °F 42.8 °F 100% 30.03 in 10.0 mi SE 4.6 mph - N/A   Clear
9:34 AM 46.4 °F 43.5 °F 46.4 °F 100% 30.03 in 10.0 mi SE 5.8 mph - N/A   Clear
9:54 AM 48.2 °F - 46.4 °F 93% 30.02 in 10.0 mi SE 5.8 mph - N/A   Clear
10:14 AM 51.8 °F - 46.4 °F 82% 30.02 in 10.0 mi SSE 4.6 mph - N/A   Scattered Clouds
10:34 AM 53.6 °F - 48.2 °F 82% 30.02 in 10.0 mi SSE 5.8 mph - N/A   Scattered Clouds
10:54 AM 53.6 °F - 48.2 °F 82% 30.01 in 10.0 mi SE 6.9 mph - N/A   Scattered Clouds
11:14 AM 55.4 °F - 46.4 °F 72% 30.01 in 10.0 mi SSE 5.8 mph - N/A   Clear
11:34 AM 57.2 °F - 50.0 °F 77% 30.00 in 10.0 mi ESE 5.8 mph - N/A   Clear
11:54 AM 57.2 °F - 48.2 °F 72% 30.00 in 10.0 mi SSE 5.8 mph - N/A   Clear
12:14 PM 57.2 °F - 48.2 °F 72% 29.99 in 10.0 mi SSE 8.1 mph - N/A   Clear
12:34 PM 59.0 °F - 48.2 °F 67% 29.99 in 10.0 mi East 3.5 mph - N/A   Clear
12:54 PM 60.8 °F - 50.0 °F 68% 29.98 in 10.0 mi SE 5.8 mph - N/A   Clear
1:14 PM 60.8 °F - 48.2 °F 63% 29.97 in 10.0 mi SSE 6.9 mph - N/A   Clear
1:34 PM 60.8 °F - 46.4 °F 59% 29.97 in 10.0 mi SSE 4.6 mph - N/A   Clear
1:54 PM 62.6 °F - 53.6 °F 72% 29.96 in 10.0 mi Calm Calm - N/A   Clear
2:14 PM 64.4 °F - 48.2 °F 56% 29.95 in 10.0 mi SSE 3.5 mph - N/A   Clear
2:34 PM 64.4 °F - 48.2 °F 56% 29.95 in 10.0 mi Calm Calm - N/A   Clear
2:54 PM 62.6 °F - 42.8 °F 48% 29.94 in 10.0 mi SSE 6.9 mph 16.1 mph N/A   Clear
3:14 PM 62.6 °F - 44.6 °F 52% 29.94 in 10.0 mi SE 4.6 mph - N/A   Clear
3:34 PM 64.4 °F - 46.4 °F 52% 29.93 in 10.0 mi SE 6.9 mph - N/A   Clear
3:54 PM 64.4 °F - 44.6 °F 49% 29.93 in 10.0 mi SE 6.9 mph - N/A   Clear
4:14 PM 64.4 °F - 44.6 °F 49% 29.92 in 10.0 mi SE 3.5 mph - N/A   Clear
4:34 PM 64.4 °F - 42.8 °F 45% 29.92 in 10.0 mi SSE 3.5 mph - N/A   Clear
4:54 PM 64.4 °F - 42.8 °F 45% 29.91 in 10.0 mi SSE 5.8 mph - N/A   Clear
5:14 PM 62.6 °F - 42.8 °F 48% 29.91 in 10.0 mi SSE 4.6 mph - N/A   Clear
5:34 PM 62.6 °F - 44.6 °F 52% 29.91 in 10.0 mi ESE 5.8 mph - N/A   Clear
5:54 PM 60.8 °F - 42.8 °F 52% 29.90 in 10.0 mi SSE 8.1 mph - N/A   Clear
6:14 PM 60.8 °F - 44.6 °F 55% 29.90 in 10.0 mi SE 4.6 mph - N/A   Clear
6:34 PM 57.2 °F - 42.8 °F 59% 29.90 in 10.0 mi SE 4.6 mph - N/A   Clear
6:54 PM 53.6 °F - 42.8 °F 67% 29.90 in 10.0 mi SE 4.6 mph - N/A   Clear
7:14 PM 51.8 °F - 42.8 °F 71% 29.91 in 10.0 mi SE 4.6 mph - N/A   Clear
7:34 PM 48.2 °F - 41.0 °F 76% 29.91 in 10.0 mi Calm Calm - N/A   Clear
7:54 PM 48.2 °F - 42.8 °F 82% 29.91 in 10.0 mi East 3.5 mph - N/A   Clear
8:14 PM 48.2 °F - 42.8 °F 82% 29.91 in 10.0 mi SE 3.5 mph - N/A   Clear
8:34 PM 46.4 °F - 42.8 °F 87% 29.91 in 10.0 mi Calm Calm - N/A   Clear
8:54 PM 46.4 °F 43.5 °F 42.8 °F 87% 29.92 in 10.0 mi SSE 5.8 mph - N/A   Clear
9:14 PM 46.4 °F 44.3 °F 42.8 °F 87% 29.92 in 10.0 mi SE 4.6 mph - N/A   Clear
9:34 PM 46.4 °F 44.3 °F 41.0 °F 81% 29.93 in 10.0 mi SSE 4.6 mph - N/A   Clear
9:54 PM 46.4 °F 43.5 °F 42.8 °F 87% 29.92 in 10.0 mi SE 5.8 mph - N/A   Clear
10:14 PM 44.6 °F 43.1 °F 41.0 °F 87% 29.92 in 10.0 mi SSE 3.5 mph - N/A   Clear
10:34 PM 44.6 °F - 42.8 °F 93% 29.93 in 10.0 mi Calm Calm - N/A   Clear
10:54 PM 44.6 °F 42.2 °F 41.0 °F 87% 29.92 in 10.0 mi SE 4.6 mph - N/A   Clear
11:14 PM 44.6 °F 43.1 °F 41.0 °F 87% 29.92 in 10.0 mi SE 3.5 mph - N/A   Clear
11:34 PM 44.6 °F - 41.0 °F 87% 29.92 in 10.0 mi Calm Calm - N/A   Clear
11:54 PM 44.6 °F 42.2 °F 42.8 °F 93% 29.91 in 10.0 mi SSE 4.6 mph - N/A   Clear